Location: Broletto
(44.6000°N, 10.5833°E)
Time: 02:52:39
(UTC+00:00)

Cosmos 1766 Rocket - Pass Details

Date: 18 April 2021
Orbit: 605 x 633 km, 82.5° (Epoch: 15 May)

Event Time Altitude Azimuth Distance (km) Brightness Sun altitude
Rises 20:57:47 0° 351° (N) 2,871 7.9 -26.0°
Reaches altitude 10° 21:00:00 10° 351° (N) 1,963 6.9 -26.2°
Enters shadow 21:03:30 57° 352° (N) 715 4.0 -26.6°
